FW6530 Weather Reports


Display with metric or nautical units.
time (UTC)temp
F
wind
direction
speed
MPH
gust
MPH
rain 1hr
in
rain 24hr
in
rain mn
in
humidity
%
barometer
mb
20260905212026 86 54 8.0 16.0 0.00 0.00 0.00 29 1024.7
20260905211549 85 46 8.0 15.0 0.00 0.00 0.00 30 1024.7
20260905211023 85 98 5.0 12.0 0.00 0.00 0.00 30 1024.9
20260905210524 85 71 6.0 13.0 0.00 0.00 0.00 30 1025.0
20260905210100 85 96 6.0 17.0 0.00 0.00 0.00 30 1025.0
20260905205525 86 117 8.0 17.0 0.00 0.00 0.00 30 1024.9
20260905205025 87 99 4.0 14.0 0.00 0.00 0.00 29 1024.9
20260905204549 87 61 6.0 13.0 0.00 0.00 0.00 30 1025.1
20260905204023 86 115 4.0 10.0 0.00 0.00 0.00 29 1025.1
20260905203526 86 101 3.0 14.0 0.00 0.00 0.00 30 1025.2
20260905203047 86 47 5.0 17.0 0.00 0.00 0.00 30 1025.3
20260905202527 85 53 8.0 17.0 0.00 0.00 0.00 31 1025.4
20260905202023 86 98 8.0 13.0 0.00 0.00 0.00 30 1025.4
20260905201547 87 113 7.0 13.0 0.00 0.00 0.00 30 1025.5
20260905201024 87 121 4.0 9.0 0.00 0.00 0.00 30 1025.7
20260905200527 86 0 2.0 9.0 0.00 0.00 0.00 31 1025.6
20260905200042 85 169 4.0 9.0 0.00 0.00 0.00 31 1025.6
20260905195523 85 124 3.0 9.0 0.00 0.00 0.00 32 1025.7
20260905195028 85 94 3.0 12.0 0.00 0.00 0.00 32 1025.8
20260905194551 86 117 5.0 12.0 0.00 0.00 0.00 31 1025.8
20260905194024 86 95 3.0 12.0 0.00 0.00 0.00 31 1025.9
20260905193524 86 123 3.0 12.0 0.00 0.00 0.00 32 1026.1
20260905193042 85 49 5.0 12.0 0.00 0.00 0.00 33 1026.1
20260905192525 85 73 4.0 13.0 0.00 0.00 0.00 32 1026.0
20260905192025 85 89 3.0 14.0 0.00 0.00 0.00 32 1026.3
20260905191543 85 94 8.0 14.0 0.00 0.00 0.00 32 1026.4
20260905191026 85 59 2.0 13.0 0.00 0.00 0.00 32 1026.3
20260905190524 84 101 4.0 13.0 0.00 0.00 0.00 33 1026.5
20260905190041 84 99 4.0 14.0 0.00 0.00 0.00 33 1026.5
20260905185523 83 55 5.0 14.0 0.00 0.00 0.00 33 1026.6
20260905185025 84 89 8.0 14.0 0.00 0.00 0.00 32 1026.8
20260905184559 84 113 3.0 12.0 0.00 0.00 0.00 33 1026.7
20260905184023 84 109 4.0 12.0 0.00 0.00 0.00 33 1026.8
20260905183522 85 79 6.0 12.0 0.00 0.00 0.00 33 1026.9
20260905183043 85 110 2.0 10.0 0.00 0.00 0.00 33 1026.9
20260905182523 84 109 5.0 10.0 0.00 0.00 0.00 34 1026.9
20260905182026 84 113 3.0 10.0 0.00 0.00 0.00 34 1026.9
20260905181546 83 106 3.0 15.0 0.00 0.00 0.00 34 1027.1
20260905181023 82 104 6.0 15.0 0.00 0.00 0.00 36 1027.2
20260905180525 82 92 5.0 13.0 0.00 0.00 0.00 34 1027.2
20260905180046 83 111 4.0 13.0 0.00 0.00 0.00 35 1027.2
20260905175532 83 96 6.0 13.0 0.00 0.00 0.00 34 1027.3
20260905175023 83 121 2.0 11.0 0.00 0.00 0.00 36 1027.4
20260905174547 82 136 3.0 11.0 0.00 0.00 0.00 36 1027.4
20260905174023 81 105 3.0 12.0 0.00 0.00 0.00 37 1027.5
20260905173524 81 115 6.0 12.0 0.00 0.00 0.00 38 1027.6
20260905173104 81 113 3.0 12.0 0.00 0.00 0.00 38 1027.5
20260905172523 81 95 6.0 12.0 0.00 0.00 0.00 37 1027.6
20260905172025 81 96 4.0 12.0 0.00 0.00 0.00 39 1027.4
20260905171544 80 100 5.0 13.0 0.00 0.00 0.00 40 1027.4
20260905171023 79 105 6.0 14.0 0.00 0.00 0.00 41 1027.6
20260905170523 80 84 6.0 14.0 0.00 0.00 0.00 40 1027.4
20260905170045 80 95 6.0 14.0 0.00 0.00 0.00 41 1027.4
20260905165523 79 90 3.0 9.0 0.00 0.00 0.00 41 1027.4
20260905165028 79 109 3.0 9.0 0.00 0.00 0.00 42 1027.5
20260905164549 78 112 5.0 14.0 0.00 0.00 0.00 42 1027.4
20260905164023 78 93 7.0 14.0 0.00 0.00 0.00 43 1027.4
20260905163528 78 90 4.0 11.0 0.00 0.00 0.00 43 1027.4
20260905163043 78 128 5.0 14.0 0.00 0.00 0.00 43 1027.4
20260905162528 77 109 5.0 14.0 0.00 0.00 0.00 43 1027.3
20260905162023 77 101 6.0 13.0 0.00 0.00 0.00 43 1027.3
20260905161604 77 101 7.0 15.0 0.00 0.00 0.00 43 1027.2
20260905161025 77 121 4.0 15.0 0.00 0.00 0.00 43 1027.1
20260905160524 77 106 5.0 15.0 0.00 0.00 0.00 44 1027.2
20260905160048 77 131 4.0 15.0 0.00 0.00 0.00 44 1027.2
20260905155528 77 111 4.0 15.0 0.00 0.00 0.00 45 1027.2
20260905155024 77 102 4.0 12.0 0.00 0.00 0.00 45 1027.2
20260905154546 76 104 2.0 14.0 0.00 0.00 0.00 46 1027.2
20260905154032 76 112 6.0 14.0 0.00 0.00 0.00 46 1027.2
20260905153524 76 121 3.0 11.0 0.00 0.00 0.00 47 1027.2
20260905153042 75 102 3.0 11.0 0.00 0.00 0.00 48 1027.3
20260905152527 75 91 4.0 9.0 0.00 0.00 0.00 49 1027.4
20260905152026 74 107 3.0 10.0 0.00 0.00 0.00 49 1027.4
20260905151551 74 128 5.0 11.0 0.00 0.00 0.00 50 1027.3
20260905151023 73 116 3.0 11.0 0.00 0.00 0.00 51 1027.2
20260905150527 73 110 3.0 11.0 0.00 0.00 0.00 53 1027.2
20260905150050 72 103 3.0 10.0 0.00 0.00 0.00 55 1027.2
20260905145525 71 0 2.0 7.0 0.00 0.00 0.00 57 1027.2
20260905145023 70 136 2.0 7.0 0.00 0.00 0.00 59 1027.3
20260905144543 69 133 1.0 6.0 0.00 0.00 0.00 61 1027.4
20260905144023 68 161 0.0 5.0 0.00 0.00 0.00 62 1027.4
20260905143524 68 154 2.0 5.0 0.00 0.00 0.00 61 1027.4
20260905143052 69 139 1.0 6.0 0.00 0.00 0.00 61 1027.4
20260905142522 69 130 0.0 7.0 0.00 0.00 0.00 61 1027.4
20260905142023 69 125 2.0 8.0 0.00 0.00 0.00 61 1027.4
20260905141549 68 127 2.0 9.0 0.00 0.00 0.00 62 1027.4
20260905141026 68 121 2.0 9.0 0.00 0.00 0.00 63 1027.5
20260905140528 67 142 2.0 9.0 0.00 0.00 0.00 64 1027.4
20260905140045 66 121 3.0 7.0 0.00 0.00 0.00 66 1027.3
20260905135525 65 133 0.0 7.0 0.00 0.00 0.00 68 1027.2
20260905135028 64 130 1.0 7.0 0.00 0.00 0.00 69 1027.1
20260905134556 63 153 2.0 6.0 0.00 0.00 0.00 70 1027.0
20260905134026 62 0 2.0 6.0 0.00 0.00 0.00 70 1027.1
20260905133526 61 0 0.0 3.0 0.00 0.00 0.00 70 1027.1
20260905133050 60 0 0.0 3.0 0.00 0.00 0.00 72 1027.1
20260905132523 59 0 0.0 2.0 0.00 0.00 0.00 74 1027.0
20260905132024 58 0 0.0 2.0 0.00 0.00 0.00 75 1026.9
20260905131550 58 0 0.0 1.0 0.00 0.00 0.00 75 1026.8
20260905131025 58 0 0.0 0.0 0.00 0.00 0.00 74 1026.7
20260905130524 58 0 0.0 1.0 0.00 0.00 0.00 74 1026.7
20260905130046 58 0 0.0 2.0 0.00 0.00 0.00 74 1026.5
20260905125528 58 0 0.0 2.0 0.00 0.00 0.00 73 1026.5
20260905125029 58 0 0.0 3.0 0.00 0.00 0.00 73 1026.4
20260905124552 58 239 0.0 4.0 0.00 0.00 0.00 73 1026.3
20260905124024 59 234 1.0 4.0 0.00 0.00 0.00 73 1026.3
20260905123523 59 236 1.0 4.0 0.00 0.00 0.00 73 1026.2
20260905123104 59 236 1.0 4.0 0.00 0.00 0.00 73 1026.2
20260905122524 59 237 2.0 4.0 0.00 0.00 0.00 73 1026.2
20260905122027 59 227 2.0 3.0 0.00 0.00 0.00 73 1026.2
20260905121556 59 229 1.0 3.0 0.00 0.00 0.00 73 1026.1
20260905121025 59 226 1.0 3.0 0.00 0.00 0.00 72 1026.1
20260905120529 59 226 0.0 2.0 0.00 0.00 0.00 72 1026.1
20260905120057 60 0 0.0 2.0 0.00 0.00 0.00 71 1026.1
20260905115527 60 225 0.0 2.0 0.00 0.00 0.00 71 1026.1
20260905115023 60 0 0.0 3.0 0.00 0.00 0.00 71 1026.1
20260905114551 60 0 0.0 3.0 0.00 0.00 0.00 71 1026.0
20260905114025 60 229 0.0 3.0 0.00 0.00 0.00 70 1026.1
20260905113525 60 229 1.0 4.0 0.00 0.00 0.00 70 1026.1
20260905113052 61 227 1.0 4.0 0.00 0.00 0.00 70 1026.1
20260905112525 61 226 1.0 4.0 0.00 0.00 0.00 70 1026.1
20260905112024 61 0 1.0 4.0 0.00 0.00 0.00 70 1026.1
20260905111554 60 225 0.0 4.0 0.00 0.00 0.00 71 1026.2
20260905111024 60 228 1.0 5.0 0.00 0.00 0.00 71 1026.3
20260905110523 60 227 0.0 5.0 0.00 0.00 0.00 72 1026.2
20260905110050 60 281 1.0 4.0 0.00 0.00 0.00 72 1026.2
20260905105528 60 282 2.0 4.0 0.00 0.00 0.00 72 1026.1
20260905105025 60 279 1.0 3.0 0.00 0.00 0.00 71 1026.1
20260905104547 60 284 2.0 3.0 0.00 0.00 0.00 71 1026.1
20260905104025 61 286 1.0 2.0 0.00 0.00 0.00 71 1026.1
20260905103533 61 0 0.0 2.0 0.00 0.00 0.00 71 1026.1
20260905103057 61 283 0.0 3.0 0.00 0.00 0.00 71 1026.1
20260905102524 61 279 1.0 3.0 0.00 0.00 0.00 71 1026.1
20260905102031 61 285 1.0 3.0 0.00 0.00 0.00 71 1026.0
20260905101600 61 0 0.0 0.0 0.00 0.00 0.00 71 1026.0
20260905101031 61 0 0.0 2.0 0.00 0.00 0.00 71 1026.1
20260905100528 61 0 0.0 3.0 0.00 0.00 0.00 71 1026.0
20260905100117 61 281 1.0 3.0 0.00 0.00 0.00 71 1026.0
20260905095527 60 281 1.0 4.0 0.00 0.01 0.00 71 1026.0
20260905095024 60 284 0.0 4.0 0.00 0.01 0.00 71 1026.1
20260905094548 60 288 2.0 4.0 0.00 0.01 0.00 72 1026.0
20260905094026 59 286 2.0 3.0 0.00 0.01 0.00 73 1026.1
20260905093526 59 282 0.0 3.0 0.00 0.01 0.00 74 1026.1
20260905093043 58 0 0.0 3.0 0.00 0.01 0.00 75 1026.1
20260905092528 58 290 1.0 3.0 0.00 0.01 0.00 74 1026.1
20260905092027 58 281 1.0 3.0 0.00 0.01 0.00 74 1026.1
20260905091558 58 292 1.0 3.0 0.00 0.01 0.00 74 1026.1
20260905091024 58 288 1.0 3.0 0.00 0.01 0.00 73 1026.0
20260905090527 58 0 1.0 3.0 0.00 0.01 0.00 73 1026.1
20260905090049 59 0 0.0 0.0 0.00 0.01 0.00 73 1026.1
20260905085529 59 0 0.0 0.0 0.00 0.01 0.00 72 1026.0
20260905085027 59 0 0.0 1.0 0.00 0.01 0.00 72 1026.1
20260905084559 59 0 0.0 3.0 0.00 0.01 0.00 72 1026.0
20260905084025 59 0 1.0 3.0 0.00 0.01 0.00 72 1025.9
20260905083527 60 305 0.0 3.0 0.00 0.01 0.00 72 1025.8
20260905083103 60 0 0.0 0.0 0.00 0.01 0.00 71 1025.8
20260905082523 60 0 0.0 0.0 0.00 0.01 0.00 71 1026.0
20260905082024 60 0 0.0 0.0 0.00 0.01 0.00 71 1026.1
20260905081550 60 0 0.0 0.0 0.00 0.01 0.00 71 1026.1
20260905081027 60 0 0.0 0.0 0.00 0.01 0.00 71 1026.1
20260905080527 60 0 0.0 0.0 0.00 0.01 0.00 71 1026.2
20260905080051 60 0 0.0 0.0 0.00 0.01 0.00 70 1026.2
20260905075524 60 0 0.0 0.0 0.00 0.01 0.00 70 1026.0
20260905075023 60 0 0.0 0.0 0.00 0.01 0.00 70 1026.1
20260905074551 61 0 0.0 0.0 0.00 0.01 0.00 70 1026.1
20260905074025 61 0 0.0 3.0 0.00 0.01 0.00 70 1026.2
20260905073523 61 0 0.0 3.0 0.00 0.01 0.00 69 1026.2
20260905073048 61 294 1.0 3.0 0.00 0.01 0.00 69 1026.2
20260905072526 61 0 0.0 2.0 0.00 0.01 0.00 70 1026.3
20260905072024 61 0 0.0 3.0 0.00 0.01 0.00 70 1026.2
20260905071544 60 296 0.0 3.0 0.00 0.01 0.00 70 1026.2
20260905071025 60 301 1.0 3.0 0.00 0.01 0.00 70 1026.2
20260905070527 60 297 1.0 2.0 0.00 0.01 0.00 70 1026.2
20260905070045 60 296 1.0 2.0 0.00 0.01 0.00 70 1026.3
20260905065523 60 298 1.0 3.0 0.00 0.01 0.00 70 1026.3
20260905065023 60 297 1.0 3.0 0.00 0.01 0.00 70 1026.3
20260905064542 60 290 1.0 3.0 0.00 0.01 0.00 69 1026.2
20260905064023 60 0 1.0 3.0 0.00 0.01 0.00 69 1026.2
20260905063530 60 284 1.0 3.0 0.00 0.01 0.00 69 1026.2
20260905063047 61 284 0.0 2.0 0.00 0.01 0.00 68 1026.2
20260905062525 61 0 0.0 0.0 0.00 0.01 0.00 67 1026.3
20260905062028 61 0 0.0 0.0 0.00 0.01 0.00 67 1026.1
20260905061546 62 0 0.0 0.0 0.00 0.01 0.00 66 1026.2
20260905061023 62 0 0.0 2.0 0.00 0.01 0.00 66 1026.2
20260905060524 62 0 0.0 3.0 0.00 0.01 0.00 66 1026.1
20260905060053 62 286 1.0 3.0 0.00 0.01 0.00 65 1026.1
20260905055524 63 304 1.0 3.0 0.00 0.01 0.01 65 1026.1
20260905055023 63 0 0.0 2.0 0.00 0.01 0.01 64 1026.0
20260905054644 63 0 0.0 3.0 0.00 0.01 0.01 63 1025.9
20260905054023 63 304 1.0 3.0 0.00 0.01 0.01 63 1025.9
20260905053523 64 289 1.0 3.0 0.00 0.01 0.01 63 1025.9
20260905053048 64 303 1.0 3.0 0.00 0.01 0.01 62 1025.9
20260905052523 64 302 1.0 3.0 0.00 0.01 0.01 62 1026.0
20260905052028 65 282 0.0 3.0 0.00 0.01 0.01 61 1026.0
20260905051547 65 0 0.0 2.0 0.00 0.01 0.01 61 1026.1
20260905051026 65 0 0.0 3.0 0.00 0.01 0.01 60 1026.1
20260905050525 66 0 0.0 3.0 0.00 0.01 0.01 60 1026.2
20260905050041 66 304 1.0 3.0 0.00 0.01 0.01 59 1026.1
20260905045528 66 313 1.0 3.0 0.00 0.01 0.01 59 1026.3
20260905045026 67 0 0.0 2.0 0.00 0.01 0.01 58 1026.3
20260905044605 67 0 0.0 3.0 0.00 0.01 0.01 58 1026.4
20260905044023 67 325 1.0 3.0 0.00 0.01 0.01 58 1026.5
20260905043524 67 317 1.0 4.0 0.00 0.01 0.01 57 1026.6
20260905043047 68 320 1.0 4.0 0.00 0.01 0.01 57 1026.7
20260905042525 68 317 1.0 4.0 0.00 0.01 0.01 57 1026.7
20260905042023 68 317 1.0 4.0 0.00 0.01 0.01 57 1026.7
20260905041542 68 314 1.0 4.0 0.00 0.01 0.01 57 1026.8
20260905041025 68 0 1.0 3.0 0.00 0.01 0.01 57 1026.7
20260905040528 68 0 0.0 5.0 0.00 0.01 0.01 57 1026.8
20260905040106 68 0 0.0 5.0 0.00 0.01 0.01 57 1026.8
20260905035523 68 360 1.0 5.0 0.00 0.01 0.01 57 1026.8
20260905035024 68 360 2.0 5.0 0.00 0.01 0.01 57 1026.9
20260905034559 68 21 2.0 5.0 0.00 0.01 0.01 58 1026.9
20260905034029 68 24 1.0 8.0 0.00 0.01 0.01 58 1026.9
20260905033530 68 27 2.0 8.0 0.00 0.01 0.01 58 1027.0
20260905033047 68 38 2.0 5.0 0.00 0.01 0.01 58 1027.0
20260905032529 68 44 0.0 5.0 0.00 0.01 0.01 58 1027.0
20260905032029 68 0 1.0 6.0 0.00 0.01 0.01 58 1027.0
20260905031551 69 44 2.0 9.0 0.00 0.01 0.01 58 1027.0
20260905031024 69 42 2.0 9.0 0.00 0.01 0.01 58 1026.9
20260905030523 69 55 3.0 9.0 0.00 0.01 0.01 58 1026.8
20260905030048 69 46 4.0 9.0 0.00 0.01 0.01 58 1026.6
20260905025524 69 37 3.0 8.0 0.00 0.01 0.01 59 1026.5
20260905025033 69 18 2.0 8.0 0.00 0.01 0.01 60 1026.4
20260905024554 69 11 4.0 8.0 0.00 0.01 0.01 60 1026.3
20260905024023 68 5 3.0 9.0 0.00 0.01 0.01 61 1026.2
20260905023525 68 345 3.0 9.0 0.00 0.01 0.01 61 1026.0
20260905023043 68 9 3.0 9.0 0.00 0.01 0.01 61 1025.9
20260905022523 68 26 2.0 9.0 0.00 0.01 0.01 62 1025.9
20260905022028 68 341 3.0 11.0 0.00 0.01 0.01 62 1025.7
20260905021552 68 348 3.0 11.0 0.00 0.01 0.01 62 1025.8
20260905021024 68 34 4.0 9.0 0.00 0.01 0.01 63 1025.6
20260905020527 68 24 3.0 13.0 0.00 0.01 0.01 62 1025.8
20260905020053 69 17 5.0 15.0 0.00 0.01 0.01 62 1025.8
20260905015526 69 18 6.0 15.0 0.00 0.01 0.01 62 1025.9
20260905015025 69 28 6.0 14.0 0.00 0.01 0.01 62 1025.9
20260905014544 69 41 5.0 15.0 0.00 0.01 0.01 62 1026.0
20260905014026 69 33 7.0 15.0 0.00 0.01 0.01 62 1025.9
20260905013529 69 41 7.0 14.0 0.00 0.01 0.01 62 1026.0
20260905013049 69 16 6.0 14.0 0.00 0.01 0.01 62 1025.9
20260905012526 69 28 6.0 15.0 0.00 0.01 0.01 62 1025.8
20260905012026 69 61 5.0 15.0 0.00 0.01 0.01 62 1025.8
20260905011546 69 40 5.0 16.0 0.00 0.01 0.01 62 1025.9
20260905011027 69 68 7.0 16.0 0.00 0.01 0.01 62 1025.8
20260905010526 69 56 7.0 18.0 0.00 0.01 0.01 62 1025.8
20260905010044 70 32 7.0 24.0 0.00 0.01 0.01 61 1025.8
20260905005532 71 51 12.0 24.0 0.00 0.01 0.01 59 1025.8
20260905005024 74 62 7.0 25.0 0.00 0.01 0.01 54 1025.8
20260905004542 77 339 9.0 25.0 0.00 0.01 0.01 48 1025.6
20260905004023 79 49 7.0 17.0 0.00 0.01 0.01 39 1025.3
20260905003525 79 112 5.0 10.0 0.00 0.01 0.01 38 1024.8
20260905003051 79 118 4.0 9.0 0.00 0.01 0.01 38 1024.7
20260905002522 79 146 3.0 9.0 0.00 0.01 0.01 38 1024.7
20260905002023 79 123 4.0 9.0 0.00 0.01 0.01 37 1024.6
20260905001547 79 125 4.0 9.0 0.00 0.01 0.01 37 1024.6
20260905001026 80 126 4.0 8.0 0.00 0.01 0.01 37 1024.5
20260905000527 80 63 2.0 7.0 0.00 0.01 0.01 37 1024.5
20260905000042 80 131 3.0 7.0 0.00 0.01 0.01 36 1024.4
20260904235523 80 86 2.0 9.0 0.00 0.01 0.01 36 1024.4
20260904235023 80 121 4.0 9.0 0.00 0.01 0.01 35 1024.4
20260904234542 80 126 5.0 9.0 0.00 0.01 0.01 35 1024.3
20260904234023 80 108 2.0 10.0 0.00 0.01 0.01 36 1024.2
20260904233523 81 101 3.0 10.0 0.00 0.01 0.01 35 1024.3
20260904233050 81 66 6.0 10.0 0.00 0.01 0.01 35 1024.3
20260904232524 81 94 2.0 9.0 0.00 0.01 0.01 35 1024.2
20260904232025 81 98 5.0 9.0 0.00 0.01 0.01 35 1024.3
20260904231602 81 113 4.0 8.0 0.00 0.01 0.01 35 1024.2
20260904231024 81 110 3.0 7.0 0.00 0.01 0.01 34 1024.3
20260904230526 82 115 3.0 11.0 0.00 0.01 0.01 34 1024.2
20260904230042 82 92 2.0 11.0 0.00 0.01 0.01 34 1024.1
20260904225522 82 96 6.0 11.0 0.00 0.01 0.01 34 1024.2
20260904225026 82 121 5.0 9.0 0.00 0.01 0.01 33 1024.1
20260904224554 83 161 5.0 11.0 0.00 0.01 0.01 34 1024.2
20260904224023 83 187 4.0 11.0 0.00 0.01 0.01 33 1024.2
20260904223528 84 94 6.0 11.0 0.00 0.01 0.01 32 1024.1
20260904223050 84 107 0.0 9.0 0.00 0.01 0.01 33 1024.2
20260904222528 84 102 4.0 12.0 0.00 0.01 0.01 32 1024.3
20260904222024 84 84 7.0 12.0 0.00 0.01 0.01 32 1024.2
20260904221547 86 72 7.0 12.0 0.00 0.01 0.01 30 1024.1
20260904221024 86 59 2.0 11.0 0.00 0.01 0.01 31 1024.0
20260904220524 85 30 5.0 11.0 0.00 0.01 0.01 32 1024.1
20260904220047 85 32 4.0 12.0 0.00 0.01 0.01 30 1024.2
20260904215527 85 52 5.0 12.0 0.00 0.01 0.01 31 1024.1
20260904215027 85 89 6.0 10.0 0.00 0.01 0.01 31 1024.1
20260904214541 86 112 3.0 13.0 0.00 0.01 0.01 31 1024.2
20260904214024 85 66 2.0 16.0 0.00 0.01 0.01 32 1024.3
20260904213527 85 92 5.0 16.0 0.00 0.01 0.01 31 1024.3
20260904213045 85 42 7.0 15.0 0.00 0.01 0.01 31 1024.4
20260904212523 85 64 7.0 15.0 0.00 0.01 0.01 32 1024.5